Regional Weather Roundup
Issued by NWS

Home | Current Version | Previous Version | Text Only | Print | Product List | Glossary On
Versions: 1 2 3 4 5 6 7 8 9 10 11 12 13 14 15 16 17 18 19 20 21 22 23 24 25 26 27 28 29 30 31 32 33 34 35 36 37 38 39 40 41 42 43 44 45 46 47 48 49 50
000
ASUS46 KLOX 010712
RWRCA

SOUTHERN CALIFORNIA WEATHER ROUNDUP
NATIONAL WEATHER SERVICE OXNARD CALIFORNIA
1100 PM PST SAT JAN 31 2015

NOTE: "FAIR" INDICATES FEW OR NO CLOUDS BELOW 12,000 FEET WITH NO
SIGNIFICANT WEATHER AND/OR OBSTRUCTIONS TO VISIBILITY.

  -  STATIONS PRECEEDED BY AN ASTERISK (*) ARE NOT NWS OR FAA
     STATIONS AND ARE NOT SUBJECT TO NWS AND FAA QUALITY CONTROL.

CAZ041-042-087-010800-
LA AND ORANGE COUNTY COASTAL AREAS


CITY           SKY/WX    TMP DP  RH WIND       PRES   REMARKS
L.A. DOWNTOWN  CLEAR     57  53  86 CALM      29.99R
L.A. AIRPORT   CLEAR     59  55  87 W3        29.99R
LONG BEACH     CLEAR     57  52  83 CALM      29.99R

CITY           SKY/WX    TMP DP  RH WIND       PRES   REMARKS
AVALON           N/A     54 N/A N/A MISG        N/A
FULLERTON      CLEAR     57  50  77 CALM      29.98S
HAWTHORNE      CLEAR     59  54  83 NW3       29.99R
*LEO CARRILLO    N/A     66  40  38 N7G20       N/A
*LOS ALAMITOS  FAIR      54  51  90 CALM      29.99S
*REDONDO BEACH   N/A     57  52  83 CALM      30.00R
SANTA ANA      CLEAR     60  53  77 CALM      29.99R
STA MONICA APT CLEAR     58  54  86 CALM      30.00R
*UCLA            N/A     55  50  82 NW5       29.97S

$$

CAZ547-548-048-010800-
LA COUNTY VALLEYS AND INLAND EMPIRE


CITY           SKY/WX    TMP DP  RH WIND       PRES   REMARKS
BURBANK        CLEAR     54  45  71 SW5       30.00R
VAN NUYS       CLEAR     56  49  77 CALM      30.01R

CITY           SKY/WX    TMP DP  RH WIND       PRES   REMARKS
CORONA AIRPORT SUNNY     52  49  89 SE7       29.99F
CHINO          CLEAR     52  48  86 CALM      30.00S FOG
*CLAREMONT       N/A     51  42  71 W3          N/A
MARCH AFB      CLEAR     50  42  73 SE3       30.00R
*NORTHRIDGE      N/A     55  45  67 E1          N/A
ONTARIO        CLEAR     63  38  39 NE9       29.98F
*PASADENA        N/A     57  48  72 CALM        N/A
RIVERSIDE      CLEAR     57  44  62 VRB5      29.99S
SAN BERNARDINO NOT AVBL
*SAN RAFAEL HI   N/A     57  42  57 W3          N/A
*SAUGUS          N/A     57  36  45 N7          N/A
*WHITEMAN AP   NOT AVBL
*WHITTIER HILL   N/A     58  49  71 N2          N/A
*WOODLAND HILL   N/A     57  43  58 S3          N/A

$$

CAZ054-055-010800-
LA AND SAN BERNARDINO COUNTY MOUNTAINS


CITY           SKY/WX    TMP DP  RH WIND       PRES   REMARKS
*ACTON           N/A     59  36  42 W5G16       N/A
*BIG BEAR AIRP SUNNY     34  30  86 E10G16    30.14S WCI  26
*BIG PINES       N/A     35  28  76 CALM        N/A
MT WILSON NWS    N/A     43  25  49 W3          N/A
SANDBERG       CLEAR     48  32  53 N9        30.11R
*WARM SPRINGS    N/A     51  32  48 N9          N/A

$$

CAZ028-029-059-060-099-010800-
ANTELOPE VALLEY AND SURROUNDING AREAS


CITY           SKY/WX    TMP DP  RH WIND       PRES   REMARKS
LANCASTER      CLEAR     43  37  79 NW7       30.08R
PALMDALE       CLEAR     46  39  76 NW6       30.07R
*POPPY PARK      N/A     44  38  78 NW7         N/A

CITY           SKY/WX    TMP DP  RH WIND       PRES   REMARKS
29 PALMS       CLEAR     52  41  66 NW10      30.11R
BARSTOW/DAGGET CLEAR     48  40  73 W9        30.05R
BISHOP         PTCLDY    36  11  35 N7        30.16S WCI  30
CHINA LAKE     CLEAR     47  36  65 SW10      30.05R
EDWARDS AFB    CLEAR     49  39  68 N5        30.05R
MOJAVE         FAIR      46  36  66 NW6       30.08S
NEEDLES        CLEAR     59  42  53 NW5       29.99R
VICTORVILLE    CLEAR     45  37  76 SE5       30.07S

$$

CAZ039-040-010800-
VENTURA AND SANTA BARBARA COUNTY COAST


CITY           SKY/WX    TMP DP  RH WIND       PRES   REMARKS
CAMARILLO      CLEAR     53  48  83 CALM      30.02R
OXNARD AIRPORT CLEAR     55  49  80 CALM      30.02R
*POINT MUGU    CLEAR     56  51  84 N6        30.02R
SBA APT/GOLETA CLEAR     52  49  89 N5        30.01R
*SANTA BARBARA   N/A     56  49  79 CALM      30.09S
*VENTURA         N/A     54  47  76 CALM      30.05S

$$

CAZ044-045-010800-
VENTURA COUNTY VALLEYS


CITY           SKY/WX    TMP DP  RH WIND       PRES   REMARKS
*SIMI VALLEY     N/A     51  46  84 CALM      30.00R
*OJAI            N/A     45  42  90 CALM      30.00S
*FILLMORE        N/A     49  43  79 CALM      29.93S

$$

CAZ053-010800-
VENTURA COUNTY MOUNTAINS


CITY           SKY/WX    TMP DP  RH WIND       PRES   REMARKS
*LOCKWOOD VLY    N/A     34  27  75 MISG        N/A
*ROSE VALLEY     N/A     34  34 100 MISG        N/A

$$

CAZ034-035-036-010800-
CENTRAL COAST AND SANTA YNEZ VALLEY


CITY           SKY/WX    TMP DP  RH WIND       PRES   REMARKS
SAN LUIS OBISP CLEAR     49  43  80 SE5       30.04R
SANTA MARIA    CLEAR     49  44  83 SE3       30.05R

CITY           SKY/WX    TMP DP  RH WIND       PRES   REMARKS
*CAL POLY SLO    N/A     59  43  55 N5G16       N/A
*LOMPOC        CLEAR     50  45  81 NE3       30.05R
*PISMO BEACH     N/A     55  46  69 CALM      30.05R
*SANTA YNEZ    FAIR      48  45  87 E6        30.04F

$$

CAZ037-038-051-010800-
SAN LUIS OBISPO COUNTY INTERIOR AND CUYAMA VALLEY


CITY           SKY/WX    TMP DP  RH WIND       PRES   REMARKS
*CUYAMA          N/A     43  39  85 CALM      30.08F
PASO ROBLES    CLEAR     43  40  89 E6        30.07R FOG

$$

CAZ032-033-061-010800-
SOUTHERN DESERTS


CITY           SKY/WX    TMP DP  RH WIND       PRES   REMARKS
BLYTHE         CLEAR     55  50  83 W6        29.97R
IMPERIAL       CLEAR     53  43  68 W6        29.96R
PALM SPRINGS   CLEAR     63  41  44 W7        30.01R
THERMAL        CLEAR     59  43  55 N5        29.96R

$$

ELSEWHERE ACROSS THE WESTERN UNITED STATES AND MEXICO


CITY           SKY/WX    TMP DP  RH WIND       PRES   REMARKS
DENVER, CO     LGT SNOW  29  27  92 N21G29    29.97R VSB 1   WCI  16
GRAND CANYON,  CLEAR     26  24  92 CALM      30.08S
HONOLULU, HI   MOCLDY    72  63  73 CALM      30.02R
KAHULUI, MAUI  MOCLDY    75  70  83 NE7       30.02R
LAKE TAHOE, CA CLEAR     28  14  55 SW5       30.23S WCI  23
LAS VEGAS, NV  CLEAR     52  40  63 S8        30.03R
MAMMOTH LAKES, FAIR      27   5  39 CALM      30.25S
MEXICO CITY, M CLEAR     54  36  50 E6        30.27F
PHOENIX, AZ    PTCLDY    55  52  89 W3        29.96R
PORTLAND, OR   CLOUDY    42  33  70 E13       30.12R
RENO, NV       PTCLDY    37  19  48 CALM      30.25R
SALT LAKE CITY CLEAR     31  28  89 E6        30.16F WCI  25
SAN DIEGO, CA  PTCLDY    58  51  78 CALM      30.00S
SAN FRANCISCO, PTCLDY    56  54  93 NW6       30.04R
SAN JOSE, CA   CLEAR     51  30  44 S3        30.05R
SEATTLE, WA    CLOUDY    43  40  89 NW5       30.11S
TIJUANA, MEX   CLEAR     55  50  82 CALM      30.01R

$$

STATION/POSITION TIME  TEMP    WIND        PRES    VSBY  WAVE
                       AIR SEA DIR/SP/G                  HT/PER
                 (UTC) (F)     (DEG/KT/KT) (MB)    (MI)  (FT/S)
POINT ARGUELLO B NOT AVBL
WEST SANTA BARBA 0700   60 60  320/ 10/ 12 1016.0R         7/14
POINT CONCEPTION NOT AVBL
EAST SANTA BARBA NOT AVBL
SANTA MONICA BAY 0700   62 62  330/ 17/ 21 1015.8R         3/15


USA.gov is the U.S. government's official web portal to all federal, state and local government web resources and services.